Content
SEND FEEDBACK

Daily
Averages
Monthly
Summary
United States of America

BAYOU LA BATRE, ALABAMA


Home > North America > United States > Alabama
Elevation: 0 feet     Latitude: 30 23N     Longitude: 088 14W

WEATHER
 
SELECT A DAY
Number of Records: 199,921;   Date Range: 8/14/97 - 11/19/14
 
SHARE

PRINT THIS DATA

[ ← Previous Day ]
WEATHER ALMANAC - AUGUST 7, 2014
[ Next Day → ]
[ °C ]   °F
Weather ElementAverageHighLow
Temperature78.8 °F91 °F (11:53 am)73 °F (2:53 am)
Dewpoint75.1 °F78.1 °F (2:01 pm)72 °F (2:53 am)
Humidity89.1 %100 % (1:50 am)59 % (11:53 am)
Barometer29.99 in30.04 in (1:36 am)29.93 in (5:53 pm)
Wind Speed1.3 mph8.1 mph (1:53 pm)
Weather ElementAverage
Visibility5.6 mi
Wind DirectionNE (48.6 °)

Weather ElementTotal
Precipitation0.04 in
Cooling Degree Days17 (Base 65)
Growing Degree Days32 (Base 50)
Averaged from 37 records on August 7, 2014
WEATHER CONDITIONS BREAKOUT
WIND DIRECTION BREAKOUT
WEATHER BY HOUR - AUGUST 7, 2014
[ °C ]   °F
Local TimeTemperatureDewpointHumidityBarometerVisibilityWind DirectionWind SpeedGust SpeedPrecipitationEventsConditions
12:53 AM75.9 °F75.0 °F97 %30.01 in3.0 miCalmClear
1:20 AM75.9 °F75.0 °F97 %29.99 in1.8 miCalmClear
1:37 AM75.9 °F75.0 °F97 %29.99 in2.0 miCalmClear
1:50 AM75.2 °F75.2 °F100 %29.98 in4.0 miCalmClear
1:53 AM75.0 °F73.9 °F96 %29.99 in3.0 miCalmClear
2:01 AM75.0 °F73.9 °F96 %29.98 in2.0 miCalmClear
2:12 AM75.9 °F75.0 °F97 %29.98 in3.0 miCalmClear
2:53 AM75.0 °F73.9 °F96 %29.98 in3.0 miCalmClear
3:03 AM73.9 °F73.0 °F97 %29.97 in2.0 miCalmClear
3:17 AM73.9 °F73.0 °F97 %29.98 in4.0 miCalmClear
3:53 AM73.9 °F73.0 °F97 %29.98 in2.0 miCalmClear
4:12 AM73.9 °F73.0 °F97 %29.97 in1.0 miCalmMist
4:19 AM73.9 °F73.0 °F97 %29.97 in0.5 miCalmFogFog
4:24 AM73.9 °F73.0 °F97 %29.97 in1.2 miCalmPartly Cloudy
4:39 AM73.9 °F73.0 °F97 %29.98 in3.0 miCalmPartly Cloudy
4:53 AM73.9 °F73.0 °F97 %29.99 in4.0 miCalmClear
5:53 AM73.0 °F72.0 °F96 %30.00 in5.0 miCalmClear
6:53 AM73.9 °F73.0 °F97 %30.01 in5.0 miCalmClear
7:53 AM80.1 °F75.9 °F87 %30.03 in8.0 miCalmClear
8:53 AM82.9 °F75.9 °F79 %30.03 in10.0 miWNW (290°)5.8 mphClear
9:53 AM87.1 °F75.9 °F69 %30.03 in10.0 miWest (260°)6.9 mphClear
10:50 AM87.8 °F75.2 °F66 %30.04 in10.0 miVariable4.6 mphMostly Cloudy
10:53 AM87.1 °F75.9 °F69 %30.04 in10.0 miWest (280°)3.5 mphMostly Cloudy
11:03 AM89.1 °F75.9 °F65 %30.03 in10.0 miNorthScattered Clouds
11:53 AM91.0 °F75.0 °F59 %30.01 in10.0 miSW (220°)4.6 mphPartly Cloudy
12:53 PM88.0 °F77.0 °F70 %30.00 in10.0 miSSW (210°)8.1 mphMostly Cloudy
1:53 PM81.0 °F75.9 °F85 %29.99 in2.5 miSSW (210°)6.9 mph0.02 inRainRain
2:01 PM82.0 °F78.1 °F88 %29.98 in4.0 miSouth (180°)4.6 mph0.01 inRainLight Rain
2:53 PM80.1 °F75.9 °F87 %29.98 in6.0 miCalm0.01 inMostly Cloudy
3:53 PM84.0 °F75.9 °F76 %29.97 in10.0 miCalmClear
5:53 PM82.0 °F78.1 °F88 %29.93 in8.0 miCalmClear
6:53 PM82.0 °F78.1 °F88 %29.94 in7.0 miCalmClear
7:53 PM80.1 °F77.0 °F90 %29.96 in9.0 miCalmClear
8:53 PM78.1 °F77.0 °F96 %29.97 in10.0 miCalmClear
9:53 PM78.1 °F77.0 °F96 %29.97 in8.0 miSSE (150°)3.5 mphClear
10:53 PM77.0 °F75.9 °F96 %29.97 in5.0 miCalmClear
11:53 PM77.0 °F75.9 °F96 %29.96 in9.0 miCalmClear
Hourly data recorded from KPQL, located miles away from Bayou La Batre, Alabama







STORIES FROM OUR PARTNERS